Location: El Bakhil
(32.7726°N, 5.5387°W)
Time: 06:40:52
(UTC+00:00)

N. Korean satellite - Pass Details

Date: 04 December 2021
Orbit: 447 x 491 km, 97.3° (Epoch: 22 January)

Event Time Altitude Azimuth Distance (km) Brightness Sun altitude
Rises 04:52:14 0° 28° (NNE) 2,451 10.4 -28.1°
Reaches altitude 10° 04:54:37 10° 45° (NE) 1,574 9.5 -27.6°
Maximum altitude 04:57:15 21° 96° (E) 1,051 9.0 -27.1°
Drops below altitude 10° 04:59:52 10° 148° (SSE) 1,567 9.6 -26.6°
Sets 05:02:14 0° 165° (SSE) 2,437 10.5 -26.1°
